Zurück zum Katalog

SATCOM K2

AktivMilitärGEO
NORAD 16276·PAYLOAD·🇺🇸 United States

Gestartet Nov 27, 1985 von Cape Canaveral Space Force Station

Loading…

TLE

AktuellSource: Space-Track

Epoche: Sep 11, 2026, 20:46 UTC

1 16276U 85109D   26254.86562744  .00000046  00000-0  00000+0 0  9995
2 16276  14.6949 351.7235 0011768 264.8243 112.1990  0.99604596126465

Verfolge SATCOM K2 in Echtzeit mit AllMySat

Download on the App Store